Probability
3 3 2 1 1 0 0 0 0 0 0 0 0 0 0 0 0 0 0 0 0 0 0 0 0 0 0 0 0 0 0 0 0 0 0 0 0 0 0 0 0 0 0
4 4 3 2 2 1 0 0 0 0 0 0 0 0 0 0 0 1 1 0 0 0 0 0 0 0 0 0 0 0 0 0 0 0 0 0 0 0 0 0 0 0 0
5 4 4 3 2 1 0 0 0 0 0 0 0 0 0 0 1 2 2 1 0 0 0 0 0 0 0 0 0 0 0 0 0 0 0 0 0 0 0 0 0 0 0
3 3 3 2 2 1 0 0 0 0 0 0 0 0 0 1 2 3 3 2 1 0 0 0 0 0 0 0 0 0 0 0 0 0 0 0 0 0 0 0 0 0 0
1 1 1 1 1 0 1 1 0 0 0 0 0 0 0 1 2 3 3 2 1 0 0 0 0 0 0 0 0 0 0 0 0 0 0 0 0 0 0 0 0 0 0
0 0 0 0 0 0 1 1 0 0 0 0 0 0 0 0 1 2 2 1 0 0 0 0 0 0 0 0 0 0 0 0 0 0 0 0 0 0 0 0 0 0 0
0 0 0 0 0 0 1 1 0 0 0 0 0 0 0 0 0 1 1 0 0 0 0 0 0 0 0 0 0 0 0 0 0 0 0 0 0 0 0 0 0 0 0
0 0 0 0 0 0 0 0 0 0 0 0 0 0 0 0 0 0 0 0 0 0 0 0 0 0 0 0 0 0 0 0 0 0 0 0 0 0 0 0 0 0 0
0 0 0 0 0 0 0 0 0 0 0 0 0 0 0 0 0 0 0 0 0 0 0 0 0 0 0 0 0 0 0 0 0 0 0 0 0 0 0 1 0 0 0
0 0 0 0 0 0 0 0 0 0 0 0 0 0 0 0 0 0 0 0 0 0 0 0 0 0 0 0 0 0 0 0 0 0 0 0 0 0 0 0 0 0 0
0 0 0 0 0 0 0 0 0 1 1 1 0 0 0 0 0 0 0 0 0 0 0 0 0 0 0 0 0 0 0 0 0 0 0 0 0 0 0 0 0 0 0
0 0 0 1 1 1 1 1 1 1 2 2 1 1 0 0 0 0 0 0 0 0 0 0 0 0 0 0 0 0 0 0 0 0 0 0 1 1 1 0 0 0 0
0 0 0 1 2 2 2 2 2 2 2 2 2 2 1 1 0 0 0 0 0 0 0 0 0 0 0 0 0 0 0 0 0 0 0 0 1 2 2 1 0 0 0
0 0 0 0 1 2 3 3 3 3 3 3 3 2 2 2 1 0 0 0 0 0 0 0 0 0 0 0 0 0 0 0 0 0 0 0 0 1 2 1 1 1 0
0 0 0 0 1 1 2 3 3 2 2 3 3 3 3 2 1 0 0 0 0 0 0 0 0 0 0 0 0 0 0 0 0 0 0 0 0 0 1 2 2 1 1
0 0 0 0 1 1 1 2 2 1 1 1 2 2 2 1 1 0 0 0 0 0 0 0 0 0 0 0 0 0 0 0 0 0 0 0 0 0 1 1 1 1 1
0 0 0 0 1 1 1 1 1 1 1 1 1 1 1 0 0 0 0 0 0 0 0 0 0 0 0 0 0 0 0 0 0 0 0 0 0 0 0 0 0 0 1
0 0 0 0 0 0 0 0 1 2 2 2 1 0 0 0 0 0 0 0 0 0 0 0 0 0 0 0 0 0 0 0 0 0 0 0 0 0 0 0 0 0 1
0 0 0 0 0 0 0 0 0 2 3 4 3 1 0 0 0 0 0 0 0 0 0 0 0 0 0 0 0 0 0 0 0 0 0 1 1 1 0 0 0 0 0
0 0 0 0 0 0 0 0 1 2 3 4 3 2 1 0 0 0 0 0 0 0 0 0 0 0 0 0 0 0 0 0 0 0 0 1 2 2 1 0 0 0 0
0 0 0 0 0 0 0 0 1 2 3 3 3 2 1 0 0 0 0 0 0 0 0 0 0 0 0 0 0 0 0 0 0 0 0 1 2 2 1 0 0 0 0
0 0 0 0 0 0 0 0 1 2 3 3 3 2 0 0 0 0 0 0 0 0 0 0 0 0 0 0 0 0 0 0 0 0 0 0 1 1 0 0 0 0 1
0 0 0 0 0 0 0 0 1 2 3 3 3 2 1 0 0 0 0 0 0 0 0 0 0 0 0 0 0 0 0 0 0 0 0 0 0 0 0 0 0 0 1
0 0 0 0 0 0 0 0 1 2 3 3 3 3 2 1 0 0 0 0 0 0 0 0 0 0 0 0 0 0 0 0 0 0 0 0 0 0 0 0 0 0 1
0 0 0 0 0 0 0 0 0 1 1 2 2 2 2 1 0 0 0 0 0 0 0 0 0 0 0 0 0 0 0 0 0 0 0 0 0 0 0 0 0 0 0
0 0 0 0 0 0 0 0 0 0 0 1 1 1 1 0 0 0 0 0 0 0 0 0 0 0 0 0 0 0 0 0 0 0 0 0 0 0 0 0 0 0 0
Wind_Speed
4 4 5 4 4 4 4 3 3 3 3 4 4 4 4 4 3 3 3 3 3 3 3 2 2 2 2 2 2 2 2 2 2 1 1 1 2 1 1 1 1 2 3
3 4 4 4 4 4 4 3 3 3 4 4 4 4 4 4 4 4 4 4 4 3 3 3 3 2 2 2 2 3 3 3 3 3 2 2 2 2 1 1 1 1 1
3 3 4 4 5 5 5 4 4 4 4 4 4 4 4 4 4 5 5 5 5 4 4 4 4 3 3 2 3 2 2 3 3 3 3 2 2 2 2 2 2 1 2
3 3 3 4 4 5 4 4 4 4 4 4 4 4 4 4 5 5 5 5 5 5 4 4 4 4 4 4 3 3 3 3 4 4 3 3 3 3 3 3 2 2 2
3 3 3 3 3 4 4 4 4 4 4 4 4 5 5 5 4 4 5 5 5 5 5 5 4 3 2 3 3 3 3 3 3 4 4 4 4 4 4 3 3 2 3
3 3 2 3 3 3 4 4 4 4 5 5 5 5 5 4 2 4 5 5 6 6 5 5 5 6 5 5 4 4 4 4 4 4 4 5 5 5 3 4 3 3 3
2 2 3 3 3 3 4 4 4 5 5 5 6 6 6 5 5 6 7 6 6 6 6 6 5 4 6 6 7 8 6 6 6 7 6 6 5 5 5 6 5 5 4
2 2 2 3 4 4 4 5 5 5 5 5 5 6 6 5 6 7 7 8 7 7 7 7 7 7 6 6 7 7 6 6 7 7 7 6 5 4 5 6 5 5 4
2 3 3 4 4 4 5 5 5 5 5 6 6 6 6 6 7 7 7 6 6 7 7 7 7 7 5 6 7 7 7 6 5 5 6 5 4 3 4 4 5 5 5
3 4 4 4 5 5 6 6 5 5 6 6 6 6 7 6 6 8 9 6 7 6 6 6 7 7 6 8 9 8 8 7 5 6 6 7 8 7 8 8 6 6 5
4 5 5 5 5 5 5 5 5 5 6 6 6 6 6 6 6 8 9 7 6 6 6 6 5 7 8 9 10 9 7 6 6 6 6 6 6 6 7 7 7 6 6
5 5 5 5 5 4 4 4 5 5 6 6 6 6 5 5 6 7 10 10 8 7 6 6 4 7 8 9 9 7 6 7 6 6 6 6 6 6 5 6 7 7 7
5 5 5 5 5 4 5 5 5 5 5 5 5 5 5 5 5 7 9 11 10 8 6 5 4 6 8 8 9 8 8 7 6 7 7 6 6 5 5 5 6 6 7
5 5 5 5 5 5 4 4 4 5 5 5 5 6 5 5 5 5 5 6 8 8 6 5 6 7 7 7 7 7 7 6 6 7 6 6 5 5 5 5 5 5 5
6 6 5 5 5 5 5 5 6 6 5 6 6 6 6 6 5 5 5 6 6 6 5 5 5 5 6 6 6 6 6 6 7 7 6 6 6 6 6 5 5 6 6
6 5 5 4 4 5 5 5 4 6 6 8 8 8 7 6 5 6 8 8 7 6 6 6 6 6 7 7 7 6 6 7 7 7 7 6 6 6 6 6 6 6 7
6 6 5 5 5 5 5 5 5 5 6 7 8 8 8 7 6 6 7 7 7 8 7 7 7 7 7 7 7 7 7 7 6 7 7 6 6 6 6 6 6 7 7
6 6 6 5 5 5 5 5 6 6 6 5 5 7 7 7 7 6 5 5 5 7 7 8 8 7 7 7 7 7 7 6 6 7 7 6 6 6 7 7 7 8 7
6 5 5 5 5 6 5 6 6 7 6 6 5 4 5 6 6 6 6 6 6 6 7 7 7 7 7 7 7 7 7 7 7 7 7 7 7 7 7 7 7 8 8
5 6 6 5 5 5 5 6 6 6 6 6 5 4 3 3 4 4 6 6 7 7 7 7 6 6 6 6 6 7 7 7 8 7 7 7 7 7 8 9 8 8 8
5 5 6 6 6 6 5 6 6 6 6 6 6 5 4 5 6 6 6 6 7 7 7 6 6 6 6 6 6 7 8 7 7 7 7 7 7 7 7 7 8 8 8
5 5 5 5 5 5 6 6 6 6 7 7 6 5 6 6 6 6 6 6 6 6 6 6 6 6 6 6 7 7 7 7 7 7 7 7 6 7 7 7 7 7 8
5 5 5 5 5 6 6 6 6 6 6 6 6 6 5 6 6 6 6 6 5 5 5 6 6 6 6 6 6 7 7 7 7 7 7 7 7 7 7 8 9 9 9
5 5 5 5 5 5 6 6 6 6 6 6 6 6 6 6 6 6 6 5 5 5 5 5 6 8 9 7 6 6 7 7 7 7 9 8 7 7 7 7 8 10 9
4 5 5 5 5 5 6 6 6 6 6 6 6 6 6 6 5 5 5 5 6 6 6 6 6 7 9 10 8 7 6 7 7 6 7 7 8 8 8 9 8 8 9
5 5 5 5 5 5 5 6 6 6 6 6 6 6 5 5 5 5 5 5 5 5 6 6 7 8 9 8 9 9 8 7 8 8 7 6 8 8 8 7 9 8 9
Wind_Direction
199 200 204 208 207 211 218 220 221 221 215 216 213 215 211 207 203 206 213 204 211 208 207 221 228 236 228 225 222 220 226 236 234 202 172 162 174 192 147 190 179 187 146
202 208 211 211 210 216 218 218 218 218 216 216 216 217 215 216 217 216 214 212 217 222 222 224 228 218 235 237 225 215 211 221 225 219 196 189 192 185 182 188 204 203 188
204 209 213 218 216 218 221 221 221 219 212 210 215 219 220 220 222 224 222 220 222 227 228 229 230 222 225 215 216 216 211 209 221 222 207 190 202 191 198 203 207 210 225
212 215 221 226 226 227 224 222 223 221 220 217 218 222 225 227 226 221 222 225 225 229 234 233 231 228 230 221 216 219 217 211 213 220 213 200 201 197 211 215 214 206 218
219 227 229 230 227 227 226 224 224 228 233 229 228 225 224 226 229 229 226 228 229 230 230 232 235 243 266 254 241 225 216 224 219 221 221 213 209 199 213 217 222 220 217
234 238 242 241 233 229 227 227 226 228 236 237 236 233 226 225 208 236 245 233 233 233 230 229 220 214 214 220 238 256 262 247 240 232 229 228 225 219 212 221 220 225 228
245 238 240 240 236 237 235 228 229 230 233 237 238 238 233 218 196 219 237 246 240 238 235 231 225 220 220 218 207 215 230 249 261 260 248 243 240 223 216 222 224 233 243
263 263 255 250 245 245 244 242 239 237 234 238 240 241 242 226 204 219 228 239 241 240 239 237 232 227 224 231 227 224 227 226 234 244 252 253 252 244 229 231 233 233 234
261 263 266 260 250 246 244 246 246 243 240 240 239 238 238 227 206 213 223 235 239 240 239 239 240 237 212 223 236 235 237 233 219 240 270 273 281 257 239 227 221 224 230
269 266 264 263 258 251 248 247 248 245 244 245 240 238 238 241 205 207 224 236 239 240 238 235 236 242 213 216 234 237 240 240 233 221 228 229 233 219 215 225 225 231 236
283 272 267 263 262 261 257 251 248 246 245 245 244 241 240 241 220 212 222 239 241 241 237 236 228 212 219 224 241 246 250 257 247 243 239 236 230 225 217 221 227 236 241
284 274 269 266 263 258 257 255 249 245 243 243 245 245 243 238 232 221 220 235 254 247 244 242 230 205 224 230 234 240 242 247 245 240 237 236 233 227 224 221 228 234 244
282 277 272 268 262 259 256 254 248 242 244 245 244 245 244 243 232 225 226 230 239 247 253 260 246 219 226 231 231 227 226 234 238 238 237 238 239 236 231 226 227 231 240
277 276 272 268 265 261 258 257 256 251 248 249 249 251 250 244 242 234 230 229 227 235 246 236 220 218 229 236 224 220 228 232 238 241 243 243 239 232 229 225 223 219 226
272 271 272 270 269 265 259 261 260 260 265 262 259 258 257 253 250 249 246 242 239 236 238 235 231 226 228 228 227 227 229 226 229 235 236 236 234 231 230 228 227 224 229
268 269 268 265 264 263 263 263 260 258 265 259 263 265 263 266 266 246 249 254 245 225 224 231 231 232 234 233 232 230 230 231 232 233 234 233 234 231 227 223 226 228 230
268 270 269 266 263 260 260 263 270 265 254 251 250 254 261 268 259 245 246 247 230 213 229 236 235 235 237 236 235 234 234 233 232 233 233 232 233 233 229 225 223 229 232
272 271 268 266 266 265 264 266 268 272 272 265 246 238 244 251 250 245 236 233 230 223 237 240 239 238 237 237 236 235 234 233 232 232 232 232 231 232 231 230 228 230 233
273 272 273 275 270 267 266 265 266 268 271 273 274 253 233 240 235 222 210 232 238 234 237 242 245 242 240 239 236 235 233 232 233 234 232 231 231 232 231 231 232 232 237
273 276 278 276 271 269 267 268 269 269 270 270 270 275 268 256 252 234 228 239 243 243 240 242 244 244 243 242 238 235 234 234 233 235 236 233 235 235 233 232 233 233 234
281 275 269 269 269 270 271 272 273 272 271 270 270 270 262 258 255 251 245 243 242 243 244 244 245 243 240 239 237 235 236 238 236 236 237 236 236 238 237 235 235 236 238
283 279 273 273 274 273 275 273 272 272 272 273 275 266 243 251 256 254 252 250 249 249 248 245 244 242 239 237 237 236 235 237 237 237 237 236 237 240 237 235 236 237 238
287 284 282 282 281 282 277 273 273 273 273 274 273 270 259 255 256 256 254 256 255 253 250 247 245 242 240 240 240 240 239 237 237 237 237 235 234 238 235 233 234 236 235
290 289 288 287 287 283 280 279 278 277 275 276 274 270 266 263 259 259 259 256 255 255 253 250 249 247 245 246 244 243 244 245 245 242 241 239 237 237 232 231 233 233 233
293 293 290 288 289 288 286 285 283 281 280 276 276 276 273 269 266 265 262 258 257 257 258 257 252 250 250 249 248 248 247 247 247 247 242 238 238 234 231 229 228 230 230
289 291 293 292 289 288 288 289 290 291 290 287 281 279 277 274 272 271 268 263 261 259 259 258 257 258 259 257 253 251 244 238 238 243 241 237 235 230 227 228 227 228 229